ARIANE 2 DEB, 27038

Orbit data source: Space-Track

ARIANE 2 DEB, 27038 is space debris in HEO originally from a launch on Fri, 27 Jan 1989 UTC launched from the French Guiana (FRGUI). Debris objects in space refer to the collection of defunct objects orbiting the Earth. Examples of debris include non-operational satellites, rocket bodies, and fragments generated from explosions, collisions, or faulty payload assembly.

Loading next visibility...
Identifier
27038, 1989-006T
Orbit
HEO
Country
Flag of FRFR
Related business
Manufacturer
EADS/LV
Mission
Spacecraft
Bus & Motor
Unknown
Mass
Unknown
Launch date (UTC)
1989-01-27 (37 years ago)
Launch vehicle
Unknown
Launch site
French Guiana (FRGUI)
Object type
Payload
Rocket body
Debris
Shape & HBR
Unknown shape, 0.3 m
Radar Cross Section
Medium (>0.1 m² and <1 m²)

Expand to show TLE details & history
Last TLE update: 3 weeks ago

TLE from 3 weeks ago
0 ARIANE 2 DEB
1 27038U 89006T   26156.20039421  .00000126  00000-0  45945-3 0  9993
2 27038   8.7296 312.0087 7204185 318.8214   4.8913  2.31088050208720
Epoch: 2026-06-05T04:48Z
TLE epoch observation values (Epoch: 2026-06-05T04:48:34.059Z)
Latitude
-0.00067°
Longitude
-13.85452°
Altitude
1,135.64 km
Speed
9.465 km/s
True Right ascension
20h 47m 41s
True Declination
0° 00' 02"
Sunlit
Object was in daylight at epoch
Visualization orbit readout
Latitude
Unknown
Longitude
Unknown
Altitude
Unknown
Speed
Unknown
Apparent Right ascension
Unknown
Apparent Declination
Unknown
Sunlit
N/A
Visualization observer readout
Local Sidereal Time
07:10:40
Azimuth
Unknown
Elevation
Unknown
Doppler factor
Unknown
Orbital elements
Apogee altitude
35,207.754 km
Perigee altitude
379.896 km
Semi-major axis
24,171.962 km
Eccentricity
0.72042
Inclination
8.7296°
RAAN
312.0087°
Arg. of periapsis
318.8214°
True anomaly
40.39217°
Mean anomaly
4.8913°
Eccentric anomaly
16.86973°
Mean motion
0.57753 °/min
Orbital period
623.34 mins
BSTAR
0.00045945
Loading maneuver chart data...
Computing Atmospheric mass density...
Loading historical data...
Loading historical data...
Loading historical data...
Loading historical data...
Loading historical data...
Loading historical data...
Loading historical data...

Documentation

Showing up to 5 results
|